UAE131 OMDB-UUDD

Flight info

Callsign UAE131
Flight time N/A
Altitude 39000
Route DAVMO DCT OTISO/N0491F380 L713 PAXER P718 SOMAD B143 KRS A240 KERUL/K0883F380 DCT AKT DCT ATNUR/K0895F400 L864 GEKPA L736 OLOPI OLOPI3L
Aircraft A388/J-SADE2E3FGHIJ3J4J5M1RWXY/LB1D1

Departure

Time 2026-04-30 07:06
Airport Dubai International Airport (OMDB)

Arrival

Time N/A
Airport Domodedovo International Airport (UUDD)
Time Latitude Longitude Altitude Speed Heading
2026-04-30 07:00 25.24367 55.37530 30 ft 2 kts 115°
2026-04-30 07:00 25.24355 55.37557 27 ft 6 kts 118°
2026-04-30 07:01 25.24327 55.37607 28 ft 10 kts 124°
2026-04-30 07:01 25.24283 55.37682 30 ft 13 kts 121°
2026-04-30 07:01 25.24250 55.37745 29 ft 3 kts 97°
2026-04-30 07:01 25.24255 55.37770 26 ft 4 kts 52°
2026-04-30 07:02 25.24283 55.37790 26 ft 6 kts 28°
2026-04-30 07:02 25.24328 55.37819 27 ft 8 kts 31°
2026-04-30 07:02 25.24380 55.37855 27 ft 9 kts 34°
2026-04-30 07:02 25.24433 55.37897 29 ft 9 kts 37°
2026-04-30 07:03 25.24477 55.37933 30 ft 7 kts 33°
2026-04-30 07:03 25.24525 55.37966 29 ft 10 kts 33°
2026-04-30 07:03 25.24588 55.38016 28 ft 11 kts 36°
2026-04-30 07:03 25.24654 55.38063 29 ft 11 kts 32°
2026-04-30 07:04 25.24714 55.38097 31 ft 7 kts 358°
2026-04-30 07:04 25.24760 55.38081 31 ft 7 kts 323°
2026-04-30 07:04 25.24789 55.38051 30 ft 0 kts 307°
2026-04-30 07:05 25.25231 55.37259 32 ft 129 kts 301°
2026-04-30 07:05 25.25782 55.36279 35 ft 167 kts 302°
2026-04-30 07:05 25.26405 55.35168 462 ft 167 kts 301°
2026-04-30 07:06 25.27014 55.34063 944 ft 171 kts 302°
2026-04-30 07:06 25.27624 55.32935 1438 ft 171 kts 303°
2026-04-30 07:06 25.28264 55.31800 2023 ft 176 kts 306°
2026-04-30 07:06 25.28961 55.30662 2731 ft 181 kts 307°
2026-04-30 07:07 25.29796 55.29647 3679 ft 182 kts 330°
2026-04-30 07:07 25.31036 55.29313 4548 ft 186 kts
2026-04-30 07:07 25.32339 55.29433 5018 ft 197 kts
2026-04-30 07:07 25.33730 55.29531 5623 ft 205 kts
2026-04-30 07:08 25.35179 55.29595 6565 ft 210 kts 360°
2026-04-30 07:08 25.36708 55.29642 7207 ft 232 kts 359°
2026-04-30 07:08 25.38400 55.29681 7793 ft 250 kts 359°
2026-04-30 07:08 25.40163 55.29933 8336 ft 262 kts 12°
2026-04-30 07:09 25.41904 55.30652 8945 ft 272 kts 21°
2026-04-30 07:09 25.43709 55.31523 9200 ft 294 kts 20°
2026-04-30 07:09 25.45664 55.32435 9554 ft 310 kts 20°
2026-04-30 07:09 25.47672 55.33366 10086 ft 318 kts 20°
2026-04-30 07:10 25.49750 55.34327 10264 ft 337 kts 20°
2026-04-30 07:10 25.51969 55.35355 10441 ft 355 kts 20°
2026-04-30 07:10 25.54292 55.36434 10765 ft 366 kts 20°
2026-04-30 07:10 25.56649 55.37540 11343 ft 369 kts 21°
2026-04-30 07:11 25.58920 55.38923 11909 ft 376 kts 31°
2026-04-30 07:11 25.61061 55.40624 12500 ft 379 kts 33°
2026-04-30 07:11 25.63220 55.42328 13072 ft 383 kts 32°
2026-04-30 07:11 25.65412 55.44037 13658 ft 387 kts 32°
2026-04-30 07:12 25.67533 55.45844 14155 ft 392 kts 39°
2026-04-30 07:12 25.69518 55.47945 14684 ft 395 kts 41°
2026-04-30 07:12 25.71520 55.50057 15216 ft 399 kts 41°
2026-04-30 07:12 25.73545 55.52179 15738 ft 402 kts 41°
2026-04-30 07:13 25.75586 55.54314 16246 ft 406 kts 41°
2026-04-30 07:13 25.77647 55.56474 16763 ft 409 kts 41°
2026-04-30 07:13 25.79727 55.58656 17284 ft 412 kts 41°
2026-04-30 07:13 25.81787 55.60820 17780 ft 415 kts 41°
2026-04-30 07:14 25.83929 55.63004 18253 ft 417 kts 35°
2026-04-30 07:14 25.86408 55.64654 18614 ft 416 kts 18°
2026-04-30 07:14 25.89170 55.65526 19024 ft 411 kts
2026-04-30 07:14 25.92014 55.65922 19411 ft 413 kts
2026-04-30 07:15 25.94886 55.66339 19820 ft 417 kts
2026-04-30 07:15 25.97744 55.66766 20201 ft 420 kts
2026-04-30 07:15 26.00654 55.67202 20599 ft 423 kts
2026-04-30 07:15 26.03604 55.67643 20987 ft 427 kts
2026-04-30 07:16 26.06559 55.68084 21378 ft 430 kts
2026-04-30 07:16 26.09537 55.68527 21770 ft 433 kts
2026-04-30 07:16 26.12546 55.68975 22164 ft 436 kts
2026-04-30 07:16 26.15531 55.69420 22543 ft 439 kts
2026-04-30 07:17 26.18589 55.69875 22905 ft 443 kts
2026-04-30 07:17 26.21661 55.70333 23285 ft 446 kts
2026-04-30 07:17 26.27822 55.71252 23925 ft 451 kts
2026-04-30 07:18 26.30944 55.71719 24255 ft 453 kts
2026-04-30 07:18 26.34087 55.72189 24563 ft 456 kts
2026-04-30 07:18 26.37239 55.72661 24878 ft 458 kts
2026-04-30 07:18 26.40405 55.73135 25231 ft 460 kts
2026-04-30 07:19 26.43585 55.73611 25530 ft 462 kts
2026-04-30 07:19 26.46787 55.74090 25844 ft 465 kts
2026-04-30 07:19 26.50006 55.74572 26160 ft 467 kts
2026-04-30 07:19 26.53239 55.75057 26475 ft 470 kts
2026-04-30 07:20 26.56452 55.75539 26778 ft 473 kts
2026-04-30 07:20 26.59725 55.76031 27116 ft 475 kts
2026-04-30 07:20 26.63020 55.76526 27444 ft 478 kts
2026-04-30 07:20 26.66326 55.77022 27779 ft 481 kts
2026-04-30 07:21 26.69655 55.77523 28119 ft 484 kts
2026-04-30 07:21 26.73005 55.78027 28454 ft 487 kts
2026-04-30 07:21 26.76381 55.78535 28829 ft 490 kts
2026-04-30 07:21 26.79781 55.79048 29210 ft 493 kts
2026-04-30 07:22 26.86577 55.80072 29915 ft 499 kts
2026-04-30 07:22 26.90032 55.80594 30249 ft 502 kts
2026-04-30 07:22 26.93510 55.81120 30564 ft 505 kts
2026-04-30 07:23 26.97006 55.81648 30911 ft 508 kts
2026-04-30 07:23 27.00513 55.82179 31270 ft 510 kts
2026-04-30 07:23 27.04044 55.82713 31628 ft 512 kts
2026-04-30 07:23 27.07590 55.83250 31956 ft 515 kts
2026-04-30 07:24 27.11150 55.83790 32308 ft 518 kts
2026-04-30 07:24 27.14725 55.84332 32649 ft 520 kts
2026-04-30 07:24 27.18329 55.84878 32970 ft 524 kts
2026-04-30 07:24 27.21924 55.85423 33257 ft 528 kts
2026-04-30 07:25 27.25580 55.85979 33614 ft 530 kts
2026-04-30 07:25 27.29242 55.86536 33914 ft 533 kts
2026-04-30 07:25 27.32935 55.87098 34186 ft 536 kts
2026-04-30 07:25 27.36636 55.87663 34518 ft 537 kts
2026-04-30 07:26 27.40340 55.88229 34948 ft 536 kts
2026-04-30 07:26 27.44046 55.88795 35421 ft 535 kts
2026-04-30 07:26 27.47696 55.89351 35745 ft 537 kts
2026-04-30 07:26 27.51400 55.89917 36224 ft 535 kts
2026-04-30 07:27 27.55080 55.90481 36729 ft 532 kts
2026-04-30 07:27 27.58742 55.91041 37181 ft 531 kts
2026-04-30 07:27 27.62398 55.91601 37614 ft 529 kts
2026-04-30 07:27 27.66051 55.92160 38091 ft 527 kts
2026-04-30 07:28 27.69686 55.92716 38546 ft 526 kts
2026-04-30 07:28 27.73313 55.93272 38885 ft 526 kts
2026-04-30 07:28 27.80568 55.94381 38919 ft 526 kts
2026-04-30 07:29 27.87834 55.95498 38937 ft 528 kts
2026-04-30 07:29 27.95104 55.96618 38968 ft 527 kts
2026-04-30 07:30 28.06103 55.98312 38954 ft 531 kts
2026-04-30 07:31 28.13389 55.99436 38961 ft 532 kts
2026-04-30 07:31 28.20723 56.00571 38980 ft 530 kts
2026-04-30 07:32 28.28042 56.01705 38952 ft 529 kts
2026-04-30 07:32 28.35288 56.02829 38962 ft 528 kts
2026-04-30 07:33 28.42568 56.03959 38952 ft 526 kts
2026-04-30 07:33 28.49836 56.05087 38995 ft 528 kts
2026-04-30 07:34 28.57165 56.06222 39038 ft 536 kts
2026-04-30 07:34 28.64550 56.07377 39037 ft 536 kts
2026-04-30 07:35 28.71916 56.08528 39073 ft 535 kts
2026-04-30 07:35 28.79349 56.09689 39073 ft 537 kts
2026-04-30 07:36 28.86715 56.10844 39082 ft 535 kts
2026-04-30 07:36 28.94067 56.11998 39069 ft 534 kts
2026-04-30 07:37 29.01449 56.13156 39048 ft 535 kts
2026-04-30 07:37 29.08823 56.14315 39052 ft 535 kts
2026-04-30 07:38 29.16182 56.15472 39070 ft 537 kts
2026-04-30 07:38 29.23624 56.16645 39095 ft 539 kts
2026-04-30 07:39 29.31041 56.17816 39119 ft 541 kts
2026-04-30 07:39 29.38479 56.18992 39136 ft 542 kts
2026-04-30 07:40 29.45981 56.20181 39147 ft 543 kts
2026-04-30 07:40 29.53480 56.21371 39161 ft 544 kts
2026-04-30 07:41 29.61003 56.22566 39167 ft 545 kts
2026-04-30 07:41 29.68468 56.23754 39174 ft 544 kts
2026-04-30 07:42 29.75978 56.24950 39158 ft 545 kts
2026-04-30 07:42 29.83483 56.26148 39150 ft 544 kts
2026-04-30 07:43 29.90941 56.27340 39144 ft 543 kts
2026-04-30 07:43 29.98425 56.28538 39144 ft 543 kts
2026-04-30 07:44 30.04710 56.29544 39104 ft 544 kts
2026-04-30 07:44 30.12187 56.30744 39078 ft 545 kts 360°
2026-04-30 07:45 30.19721 56.31956 39070 ft 545 kts 360°
2026-04-30 07:45 30.27201 56.33160 39065 ft 546 kts 360°
2026-04-30 07:46 30.34730 56.34374 39067 ft 546 kts 360°
2026-04-30 07:46 30.42262 56.35590 39056 ft 546 kts 360°
2026-04-30 07:47 30.49794 56.36809 39058 ft 547 kts 360°
2026-04-30 07:47 30.57339 56.38031 39075 ft 547 kts 359°
2026-04-30 07:48 30.64875 56.39253 39052 ft 546 kts 360°
2026-04-30 07:48 30.72355 56.40470 39047 ft 545 kts 359°
2026-04-30 07:49 30.79865 56.41693 39032 ft 544 kts 359°
2026-04-30 07:49 30.87373 56.42916 39026 ft 544 kts 359°
2026-04-30 07:50 30.94871 56.44140 39026 ft 544 kts 359°
2026-04-30 07:50 31.02382 56.45368 39042 ft 544 kts 359°
2026-04-30 07:51 31.09859 56.46593 39041 ft 545 kts 359°
2026-04-30 07:51 31.17377 56.47826 39040 ft 545 kts 359°
2026-04-30 07:52 31.24905 56.49063 39032 ft 546 kts 359°
2026-04-30 07:52 31.32398 56.50295 39011 ft 546 kts 359°
2026-04-30 07:53 31.39945 56.51541 39017 ft 546 kts 359°
2026-04-30 07:53 31.47441 56.52779 39005 ft 546 kts 359°
2026-04-30 07:54 31.54991 56.54028 38980 ft 546 kts 359°
2026-04-30 07:54 31.62477 56.55268 38970 ft 545 kts 359°
2026-04-30 07:55 31.70001 56.56515 38948 ft 546 kts 359°
2026-04-30 07:55 31.77530 56.57766 38909 ft 546 kts 359°
2026-04-30 07:56 31.85002 56.59011 38923 ft 545 kts 359°
2026-04-30 07:56 31.92544 56.60268 38929 ft 546 kts 359°
2026-04-30 07:57 32.00062 56.61523 38894 ft 548 kts 359°
2026-04-30 07:57 32.07625 56.62788 38901 ft 549 kts 359°
2026-04-30 07:58 32.15174 56.64053 38883 ft 550 kts 359°
2026-04-30 07:58 32.22775 56.65330 38894 ft 550 kts 359°
2026-04-30 07:59 32.30356 56.66605 38893 ft 550 kts 359°
2026-04-30 07:59 32.37902 56.67876 38892 ft 550 kts 359°
2026-04-30 08:00 32.49299 56.69798 38875 ft 551 kts 358°
2026-04-30 08:00 32.56859 56.71077 38879 ft 551 kts 358°
2026-04-30 08:01 32.64459 56.72365 38878 ft 551 kts 358°
2026-04-30 08:01 32.72079 56.73659 38861 ft 552 kts 358°
2026-04-30 08:02 32.83460 56.75596 38854 ft 552 kts 358°
2026-04-30 08:03 32.98678 56.78190 38837 ft 552 kts 358°
2026-04-30 08:04 33.06248 56.79484 38830 ft 552 kts 358°
2026-04-30 08:04 33.13876 56.80790 38848 ft 552 kts 358°
2026-04-30 08:04 33.17676 56.81277 38828 ft 541 kts 350°
2026-04-30 08:05 33.21332 56.81059 38826 ft 523 kts 340°
2026-04-30 08:05 33.24836 56.80165 38823 ft 506 kts 330°
2026-04-30 08:05 33.28070 56.78694 38821 ft 490 kts 321°
2026-04-30 08:05 33.30994 56.76737 38816 ft 475 kts 313°
2026-04-30 08:06 33.33604 56.74397 38816 ft 465 kts 309°
2026-04-30 08:06 33.38727 56.69595 38841 ft 468 kts 309°
2026-04-30 08:07 33.43859 56.64806 38842 ft 468 kts 309°
2026-04-30 08:07 33.48962 56.60023 38853 ft 468 kts 309°
2026-04-30 08:08 33.54095 56.55196 38843 ft 469 kts 309°
2026-04-30 08:08 33.59233 56.50356 38904 ft 472 kts 309°
2026-04-30 08:08 33.61813 56.47923 39216 ft 471 kts 309°
2026-04-30 08:09 33.64397 56.45486 39502 ft 471 kts 310°
2026-04-30 08:09 33.69570 56.40592 39683 ft 482 kts 310°
2026-04-30 08:09 33.72220 56.38082 39820 ft 485 kts 310°
2026-04-30 08:10 33.74889 56.35554 39866 ft 490 kts 310°
2026-04-30 08:10 33.80176 56.30567 39869 ft 480 kts 310°
2026-04-30 08:11 33.85412 56.25589 39862 ft 484 kts 310°
2026-04-30 08:11 33.90693 56.20569 39854 ft 483 kts 310°
2026-04-30 08:12 33.95988 56.15527 39848 ft 483 kts 310°
2026-04-30 08:12 34.01240 56.10518 39847 ft 484 kts 310°
2026-04-30 08:13 34.06526 56.05470 39848 ft 484 kts 310°
2026-04-30 08:13 34.11772 56.00453 39843 ft 483 kts 310°
2026-04-30 08:14 34.17049 55.95398 39839 ft 483 kts 310°
2026-04-30 08:14 34.22325 55.90334 39832 ft 484 kts 310°
2026-04-30 08:15 34.27569 55.85293 39839 ft 484 kts 310°
2026-04-30 08:15 34.32841 55.80218 39836 ft 483 kts 310°
2026-04-30 08:16 34.38120 55.75124 39830 ft 484 kts 310°
2026-04-30 08:16 34.43365 55.70057 39833 ft 485 kts 310°
2026-04-30 08:17 34.48651 55.64943 39839 ft 485 kts 310°
2026-04-30 08:17 34.53940 55.59817 39839 ft 486 kts 310°
2026-04-30 08:18 34.59191 55.54721 39844 ft 486 kts 310°
2026-04-30 08:18 34.64483 55.49575 39840 ft 487 kts 310°
2026-04-30 08:19 34.69778 55.44417 39857 ft 488 kts 310°
2026-04-30 08:19 34.75087 55.39237 39851 ft 489 kts 310°